Location: Banska Bystrica
(0.0000°N, 19.1500°E)
Time: 10:37:10
(UTC+01:00)

ATLAS 2A CENTAUR R/B - Pass Details

Date: 19 February 2019
Orbit: 265 x 16214 km, 26.9° (Epoch: 18 March)

Event Time Altitude Azimuth Distance (km) Brightness Sun altitude
Rises 18:46:40 0° 253° (WSW) 2,228 7.0 -12.1°
Reaches altitude 10° 18:47:58 10° 258° (WSW) 1,625 5.8 -12.4°
Maximum altitude 18:51:08 58° 339° (NNW) 927 3.0 -13.2°
Enters shadow 18:59:47 14° 55° (NE) 4,433 5.8 -15.3°
